TimeCDT,TemperatureF,Dew PointF,Humidity,Sea Level PressureIn,VisibilityMPH,Wind Direction,Wind SpeedMPH,Gust SpeedMPH,PrecipitationIn,Events,Conditions,WindDirDegrees,DateUTC
12:15 AM,38.5,32.0,78,30.15,10.0,North,3.5,-,N/A,,Clear,360,2012-11-03 05:15:00
12:35 AM,37.0,32.0,82,30.16,10.0,NNW,3.5,-,N/A,,Clear,340,2012-11-03 05:35:00
12:55 AM,36.9,32.0,83,30.16,10.0,North,4.6,-,N/A,,Clear,360,2012-11-03 05:55:00
1:15 AM,36.7,31.8,83,30.16,10.0,North,3.5,-,N/A,,Clear,10,2012-11-03 06:15:00
1:35 AM,37.9,32.2,80,30.16,10.0,North,3.5,-,N/A,,Mostly Cloudy,360,2012-11-03 06:35:00
1:55 AM,38.3,32.4,79,30.16,10.0,NNE,3.5,-,N/A,,Mostly Cloudy,20,2012-11-03 06:55:00
2:15 AM,37.6,32.2,81,30.15,10.0,Calm,Calm,-,N/A,,Mostly Cloudy,0,2012-11-03 07:15:00
2:35 AM,37.8,32.2,80,30.15,10.0,Calm,Calm,-,N/A,,Scattered Clouds,0,2012-11-03 07:35:00
2:55 AM,38.3,32.4,79,30.14,10.0,Calm,Calm,-,N/A,,Clear,0,2012-11-03 07:55:00
3:15 AM,36.1,32.4,86,30.13,10.0,Calm,Calm,-,N/A,,Clear,0,2012-11-03 08:15:00
3:35 AM,37.4,32.2,81,30.12,10.0,Calm,Calm,-,N/A,,Scattered Clouds,0,2012-11-03 08:35:00
3:55 AM,37.4,32.0,81,30.12,10.0,Calm,Calm,-,N/A,,Mostly Cloudy,0,2012-11-03 08:55:00
4:15 AM,37.2,32.0,81,30.13,10.0,Calm,Calm,-,N/A,,Mostly Cloudy,0,2012-11-03 09:15:00
4:35 AM,36.0,32.0,86,30.14,10.0,WSW,3.5,-,N/A,,Scattered Clouds,240,2012-11-03 09:35:00
4:55 AM,32.5,29.5,88,30.14,10.0,Calm,Calm,-,N/A,,Scattered Clouds,0,2012-11-03 09:55:00
5:15 AM,31.6,29.3,91,30.14,10.0,Calm,Calm,-,N/A,,Clear,0,2012-11-03 10:15:00
5:35 AM,32.4,31.6,97,30.15,10.0,Calm,Calm,-,N/A,,Mostly Cloudy,0,2012-11-03 10:35:00
5:55 AM,33.4,32.0,94,30.16,10.0,Calm,Calm,-,N/A,,Overcast,0,2012-11-03 10:55:00
6:15 AM,33.4,31.8,94,30.15,10.0,Calm,Calm,-,N/A,,Mostly Cloudy,0,2012-11-03 11:15:00
6:35 AM,33.6,32.0,94,30.15,10.0,Calm,Calm,-,N/A,,Mostly Cloudy,0,2012-11-03 11:35:00
6:55 AM,35.6,32.7,89,30.15,10.0,Calm,Calm,-,N/A,,Overcast,0,2012-11-03 11:55:00
7:15 AM,35.6,33.3,91,30.16,10.0,Calm,Calm,-,N/A,,Overcast,0,2012-11-03 12:15:00
7:35 AM,37.8,33.6,85,30.16,10.0,East,4.6,-,N/A,,Overcast,100,2012-11-03 12:35:00
7:55 AM,38.1,33.6,84,30.17,10.0,East,4.6,-,N/A,,Mostly Cloudy,100,2012-11-03 12:55:00
8:15 AM,38.1,33.4,83,30.18,10.0,ESE,3.5,-,N/A,,Scattered Clouds,110,2012-11-03 13:15:00
8:35 AM,38.7,33.6,82,30.18,10.0,ENE,5.8,-,N/A,,Mostly Cloudy,70,2012-11-03 13:35:00
8:55 AM,38.8,33.3,80,30.19,10.0,East,5.8,-,N/A,,Mostly Cloudy,100,2012-11-03 13:55:00
9:15 AM,39.7,33.3,78,30.19,10.0,East,6.9,-,N/A,,Mostly Cloudy,90,2012-11-03 14:15:00
9:35 AM,40.1,33.8,78,30.20,10.0,ESE,4.6,-,N/A,,Scattered Clouds,110,2012-11-03 14:35:00
9:55 AM,40.8,33.8,76,30.20,10.0,East,5.8,-,N/A,,Mostly Cloudy,90,2012-11-03 14:55:00
10:15 AM,40.5,33.6,77,30.20,10.0,East,8.1,-,N/A,,Overcast,100,2012-11-03 15:15:00
10:35 AM,40.6,33.1,74,30.21,10.0,East,4.6,-,N/A,,Overcast,80,2012-11-03 15:35:00
10:55 AM,41.2,33.3,73,30.20,10.0,Calm,Calm,-,N/A,,Overcast,0,2012-11-03 15:55:00
11:15 AM,43.2,34.2,71,30.20,10.0,ENE,5.8,-,N/A,,Mostly Cloudy,70,2012-11-03 16:15:00
11:35 AM,43.7,34.0,69,30.20,10.0,ENE,3.5,-,N/A,,Mostly Cloudy,70,2012-11-03 16:35:00
11:55 AM,43.0,33.4,69,30.20,10.0,NE,5.8,-,N/A,,Overcast,40,2012-11-03 16:55:00
12:15 PM,43.0,33.8,70,30.19,10.0,NE,5.8,-,N/A,,Overcast,50,2012-11-03 17:15:00
12:35 PM,42.8,33.8,70,30.19,10.0,ENE,5.8,-,N/A,,Overcast,70,2012-11-03 17:35:00
12:55 PM,42.8,33.6,70,30.18,10.0,NNE,8.1,-,N/A,,Overcast,30,2012-11-03 17:55:00
1:15 PM,43.3,33.8,69,30.18,10.0,NE,8.1,-,N/A,,Overcast,40,2012-11-03 18:15:00
1:35 PM,43.3,33.6,69,30.18,10.0,NNE,5.8,-,N/A,,Overcast,30,2012-11-03 18:35:00
1:55 PM,43.0,33.6,70,30.18,10.0,ENE,4.6,-,N/A,,Overcast,60,2012-11-03 18:55:00
2:15 PM,43.7,34.0,69,30.17,10.0,NNE,8.1,-,N/A,,Overcast,20,2012-11-03 19:15:00
2:35 PM,43.3,33.8,69,30.16,10.0,NE,5.8,-,N/A,,Overcast,50,2012-11-03 19:35:00
2:55 PM,43.0,33.3,69,30.16,10.0,NE,6.9,-,N/A,,Overcast,40,2012-11-03 19:55:00
3:15 PM,43.9,33.8,68,30.16,10.0,NE,5.8,-,N/A,,Overcast,50,2012-11-03 20:15:00
3:35 PM,43.7,33.6,68,30.16,10.0,ENE,4.6,-,N/A,,Mostly Cloudy,70,2012-11-03 20:35:00
3:55 PM,43.2,33.4,69,30.17,10.0,NE,5.8,-,N/A,,Mostly Cloudy,40,2012-11-03 20:55:00
4:15 PM,43.2,33.3,68,30.17,10.0,NNE,4.6,-,N/A,,Overcast,30,2012-11-03 21:15:00
4:35 PM,42.8,33.4,70,30.17,10.0,NNE,4.6,-,N/A,,Overcast,20,2012-11-03 21:35:00
4:55 PM,42.8,33.3,69,30.17,10.0,NNE,4.6,-,N/A,,Overcast,20,2012-11-03 21:55:00
5:15 PM,42.8,33.6,70,30.17,10.0,NE,4.6,-,N/A,,Overcast,40,2012-11-03 22:15:00
5:35 PM,42.8,33.3,69,30.18,10.0,NNE,4.6,-,N/A,,Overcast,20,2012-11-03 22:35:00
5:55 PM,42.6,33.1,69,30.18,10.0,NE,6.9,-,N/A,,Overcast,40,2012-11-03 22:55:00
6:15 PM,42.1,33.8,72,30.19,10.0,NNE,3.5,-,N/A,,Overcast,20,2012-11-03 23:15:00
6:35 PM,42.1,33.8,72,30.19,10.0,North,5.8,-,N/A,,Overcast,10,2012-11-03 23:35:00
6:55 PM,41.9,33.8,73,30.19,10.0,NNE,4.6,-,N/A,,Overcast,20,2012-11-03 23:55:00
7:15 PM,41.9,33.8,73,30.20,10.0,North,3.5,-,N/A,,Overcast,10,2012-11-04 00:15:00
7:35 PM,41.9,33.8,73,30.20,10.0,North,4.6,-,N/A,,Overcast,10,2012-11-04 00:35:00
7:55 PM,41.9,33.8,73,30.19,10.0,NNE,3.5,-,N/A,,Overcast,30,2012-11-04 00:55:00
8:15 PM,41.7,33.6,73,30.19,10.0,NNE,5.8,-,N/A,,Overcast,20,2012-11-04 01:15:00
8:35 PM,40.8,33.8,76,30.19,10.0,North,5.8,-,N/A,,Overcast,360,2012-11-04 01:35:00
8:55 PM,40.3,34.0,78,30.19,10.0,Calm,Calm,-,N/A,,Overcast,0,2012-11-04 01:55:00
9:15 PM,40.3,34.2,79,30.20,10.0,Calm,Calm,-,N/A,,Overcast,0,2012-11-04 02:15:00
9:35 PM,40.1,33.8,78,30.20,10.0,North,4.6,-,N/A,,Overcast,350,2012-11-04 02:35:00
9:55 PM,39.2,33.3,79,30.20,10.0,North,3.5,-,N/A,,Mostly Cloudy,350,2012-11-04 02:55:00
10:15 PM,38.5,33.1,81,30.20,10.0,Calm,Calm,-,N/A,,Scattered Clouds,0,2012-11-04 03:15:00
10:35 PM,38.3,33.1,81,30.20,10.0,Calm,Calm,-,N/A,,Clear,0,2012-11-04 03:35:00
10:55 PM,37.6,32.9,83,30.21,10.0,NNW,3.5,-,N/A,,Clear,330,2012-11-04 03:55:00
11:15 PM,35.8,32.0,86,30.20,10.0,Calm,Calm,-,N/A,,Clear,0,2012-11-04 04:15:00
11:35 PM,34.7,32.0,90,30.21,10.0,Calm,Calm,-,N/A,,Clear,0,2012-11-04 04:35:00
11:55 PM,34.5,32.0,90,30.21,10.0,Calm,Calm,-,N/A,,Clear,0,2012-11-04 04:55:00